IUS DEB

Satellite information

Favourite Embed

Satellite Type and Status

DEBRISIN ORBIT

Key statistics

Satellite IUS DEB at a glance.

Uptime

9483

Days in orbit

Revolutions

≈ 7.0

Per day

Orbit

MEO

Medium Earth Orbit

Inclination

28.1

Latest

Satellite identification and parameters

Extended collection of information and parameters for IUS DEB.

Object identification

Identified? True

Debris? True

Object name: IUS DEB

International designator: 1999-040P

Object number (NORAD): 43366

Object ID (CCSDS): 43366

Country: UNITED STATES OF AMERICA (US)

Current information (Y/N): Y

RCS size: SMALL

Orbital parameters

Period: 204.875 minutes

Inclination: 28.1225 deg

SMA: 11512.036 km

Apoapsis: 9531.282 km

Periapsis: 736.52 km

RAAN: 108.4223 deg

Eccentricy: 0.3819812

Argument of periapsis: 168.6248 deg

Mean anomaly: 203.3911 deg

Mean motion: 7.0286927 rev/day

Mean motion (dot): 0.00001152 rev/day2

B* drag term: 0.0054289 1/REarth

Two-line elements (TLE)

Creation date: July 8, 2025, 5:26 p.m.

Reference frame: TEME

Reference center: EARTH

Epoch: July 8, 2025, 1:30 a.m. UTC

TLE line 0: 0 IUS DEB

TLE line 1: 1 43366U 99040P 25189.06251176 .00001152 00000-0 54289-2 0 9996

TLE line 2: 2 43366 28.1225 108.4223 3819812 168.6248 203.3911 7.02869270244045

Live tracking on map

Real-time ground track for satellite IUS DEB.

In-orbit conjunctions

A list of the most updated potential collisions computed for object IUS DEB.

Target Orbit TCA Probability of collision Miss distance Type
FALCON 9 R/B LEO 2025-02-15 12:12:05 TBA 749.0 (m) ROCKET BODY

Associated space launch

STS-93 marked the 95th launch of the Space Shuttle, the 26th launch of Columbia, and the 21st night launch of a Space Shuttle. Eileen Collins became the first female shuttle Commander on this flight. Its primary payload was the Chandra X-ray Observatory.

IUS DEB was lifted into orbit during the mission ‘Space Shuttle Columbia OV-102 | STS-93’, on board a Space Shuttle space rocket.

The launch took place on July 23, 1999, 4:31 a.m. from Launch Complex 39B.

For more information about the launch, click the button.

Launch to space Space Shuttle Columbia OV-102 | STS-93
Space Shuttle Columbia OV-102 | STS-93

Agency: N/A

Status: Launch Successful

Launch date: July 23, 1999, 4:31 a.m. UTC

Rocket: Space Shuttle

Launch pad: Launch Complex 39B

Location: Kennedy Space Center, FL, USA

...

Latest news about this satellite

News about space launch
NASA’s Chandra Shares a New View of Our Galactic Neighbor

The Andromeda galaxy, also known as Messier 31 (M31), is the closest spiral galaxy to the Milky Way at a distance of about 2.5 million light-years. Astronomers use Andromeda to understand the structure and evolution of our own spiral, which is much harder...

News about space launch
NASA’s Chandra Sees Surprisingly Strong Black Hole Jet at Cosmic “Noon”

A black hole has blasted out a surprisingly powerful jet in the distant universe, according to a new study from NASA’s Chandra X-ray Observatory and discussed in our latest press release. This jet exists early enough in the cosmos that it is being illumin...

News about space launch
Galaxy Clusters on Course to Crash Again, NASA’s Chandra Finds

New observations from NASA’s Chandra X-ray Observatory and other telescopes have captured a rare cosmic event: two galaxy clusters have collided and are now poised to head back for another swipe at each other. Galaxy clusters are some of the largest struc...


Newsletter sign-up

Weekly statistics, charts and insights to help you stay on top of the space industry.